NOAA NWS Hourly Roundups by Site

Regional Weather Roundup for Seattle, WA

To Select Another Site Choose from List

Select Site:  

000
ASUS46 KSEW 071810
RWRWA

WASHINGTON REGIONAL WEATHER ROUNDUP
NATIONAL WEATHER SERVICE SEATTLE WA
1000 AM PST TUE FEB 07 2023

NOTE:"FAIR" INDICATES FEW OR NO CLOUDS BELOW 12,000 FEET WITH NO
SIGNIFICANT WEATHER AND/OR OBSTRUCTIONS TO VISIBILITY.

WAZ507-509-555>559-071900-
SEATTLE, TACOMA, EVERETT, AND VICINITY

CITY           SKY/WX    TMP DP  RH WIND       PRES   REMARKS
EVERETT        LGT RAIN  45  41  86 S15G23    30.09F
6HR MIN TEMP:  44; 6HR MAX TEMP:  46; 6HR PCP:  0.02;

BOEING FIELD   LGT RAIN  47  43  86 S14G21    30.10F
6HR MIN TEMP:  44; 6HR MAX TEMP:  47; 6HR PCP:  0.06;

RENTON         LGT RAIN  49  41  74 S12G23    30.10F
6HR MIN TEMP:  45; 6HR MAX TEMP:  49; 6HR PCP: TRACE;

SEATAC AIRPORT CLOUDY    47  41  80 S16G25    30.10F
6HR MIN TEMP:  44; 6HR MAX TEMP:  47; 6HR PCP:  0.23;

JBLM-MCCHORD   NOT AVBL
PUYALLUP       NOT AVBL
BREMERTON      LGT RAIN  44  43  96 S23G35    30.09S
6HR MIN TEMP:  43; 6HR MAX TEMP:  44; 6HR PCP:  0.48;

JBLM-FT LEWIS  NOT AVBL
TACOMA NARROWS LGT RAIN  47  42  83 S17G33    30.10F
6HR MIN TEMP:  45; 6HR MAX TEMP:  47; 6HR PCP:  0.09;

$$

WAZ001-503-506-510-514-515-071900-
NORTH INTERIOR

CITY           SKY/WX    TMP DP  RH WIND       PRES   REMARKS
BELLINGHAM     LGT RAIN  47  45  93 S18G30    30.02S FOG
6HR MIN TEMP:  47; 6HR MAX TEMP:  49; 6HR PCP:  0.04;

FRIDAY HARBOR  LGT RAIN  46  43  89 S9G23     30.04S
6HR MIN TEMP:  45; 6HR MAX TEMP:  46; 6HR PCP:  0.10;

EASTSOUND      LGT RAIN  46  46 100 S15       30.02S FOG
PORT ANGELES   LGT RAIN  47  42  83 SW8       30.03F
6HR MIN TEMP:  44; 6HR MAX TEMP:  47; 6HR PCP:  0.20;

EDIZ HOOK      LGT RAIN  45  45 100 S3        30.03S
6HR MIN TEMP:  44; 6HR MAX TEMP:  46; 6HR PCP:  0.10;

PORT TOWNSEND  CLOUDY    48  43  81 S8G16     30.04R
NAS WHIDBEY    NOT AVBL
ARLINGTON      CLOUDY    47  42  83 S20G28    30.08F
6HR MIN TEMP:  45; 6HR MAX TEMP:  49; 6HR PCP:  0.03;

BURLINGTON     CLOUDY    48  45  87 S12G22    30.06S
$$

WAZ020-022-039-040-504-511-512-071900-
SOUTHWEST INTERIOR

CITY           SKY/WX    TMP DP  RH WIND       PRES   REMARKS
SHELTON        LGT RAIN  47  44  90 S14G24    30.08S
6HR MIN TEMP:  44; 6HR MAX TEMP:  47; 6HR PCP:  0.40;

OLYMPIA        LGT RAIN  45  43  93 S17       30.15R
6HR MIN TEMP:  44; 6HR MAX TEMP:  45; 6HR PCP:  0.22;

CHEHALIS       LGT RAIN  45  45 100 S12       30.19R
KELSO          CLOUDY    46  41  82 SE16G23   30.23S
6HR MIN TEMP:  46; 6HR MAX TEMP:  47;

VANCOUVER      LGT RAIN  47  42  83 SE9G17    30.29F
6HR MIN TEMP:  47; 6HR MAX TEMP:  49; 6HR PCP:  0.05;

SCAPPOOSE, OR  LGT RAIN  46  41  82 SE9       30.26R
6HR MIN TEMP:  45; 6HR MAX TEMP:  47; 6HR PCP:  0.01;

PORTLAND, OR   LGT RAIN  48  41  76 S10G22    30.28F
6HR MIN TEMP:  47; 6HR MAX TEMP:  50; 6HR PCP:  0.03;

$$

WAZ021-516-517-071900-
WASHINGTON COAST

CITY           SKY/WX    TMP DP  RH WIND       PRES   REMARKS
FORKS          NOT AVBL
HOQUIAM        LGT RAIN  50  48  93 SW21      30.12S FOG
6HR MIN TEMP:  49; 6HR MAX TEMP:  50; 6HR PCP:  0.48;

ASTORIA, OR    LGT RAIN  49  46  90 S17G24    30.18R
6HR MIN TEMP:  49; 6HR MAX TEMP:  50; 6HR PCP:  0.19;

$$

WAZ019-023-024-040-567>569-071900-
CASCADE MOUNTAINS AND COLUMBIA GORGE

CITY           SKY/WX    TMP DP  RH WIND       PRES   REMARKS
STAMPEDE PASS  SNOW      33  31  92 CALM      30.07F VSB 1/2
6HR MIN TEMP:  31; 6HR MAX TEMP:  33; 6HR PCP:  0.44;

TROUTDALE, OR  LGT RAIN  46  41  82 E3        30.29S
6HR MIN TEMP:  44; 6HR MAX TEMP:  48; 6HR PCP:  0.07;

HOOD RIVER, OR LGT RAIN  41  37  87 CALM      30.25R
THE DALLES, OR PTSUNNY   39  35  86 CALM      30.26F
6HR MIN TEMP:  33; 6HR MAX TEMP:  39;

$$

WAZ026-027-041>044-520-521-071900-
EAST SLOPES

CITY           SKY/WX    TMP DP  RH WIND       PRES   REMARKS
OMAK           CLOUDY    39  32  76 S12       30.12F
6HR MIN TEMP:  38; 6HR MAX TEMP:  40;

WENATCHEE      PTSUNNY   36  31  82 E8        30.12F
6HR MIN TEMP:  33; 6HR MAX TEMP:  37;

ELLENSBURG     PTSUNNY   38  32  79 CALM      30.14F
6HR MIN TEMP:  34; 6HR MAX TEMP:  38;

YAKIMA         PTSUNNY   36  31  82 W3        30.17F
6HR MIN TEMP:  32; 6HR MAX TEMP:  36;

SUNNYSIDE ARPT CLOUDY    42  36  79 E5        30.21S
6HR MIN TEMP:  33; 6HR MAX TEMP:  40;

YAKIMA TC      NOT AVBL
$$

WAZ028-034-035-071900-
COLUMBIA BASIN

CITY           SKY/WX    TMP DP  RH WIND       PRES   REMARKS
EPHRATA        CLOUDY    36  33  89 N5        30.15F
6HR MIN TEMP:  33; 6HR MAX TEMP:  36;

MOSES LAKE     CLOUDY    39  34  82 S9        30.15F
6HR MIN TEMP:  36; 6HR MAX TEMP:  39;

PASCO          CLOUDY    48  35  60 S14       30.23F
6HR MIN TEMP:  44; 6HR MAX TEMP:  48;

RICHLAND ARPT  CLOUDY    49  36  60 S10G21    30.21F
6HR MIN TEMP:  44; 6HR MAX TEMP:  49;

HERMISTON, OR  CLOUDY    45  33  63 S7        30.25F
6HR MIN TEMP:  38; 6HR MAX TEMP:  45;

$$

WAZ036>038-071900-
NORTHEAST WASHINGTON

CITY           SKY/WX    TMP DP  RH WIND       PRES   REMARKS
SPOKANE GEIGER LGT RAIN  36  32  85 S7        30.18F
6HR MIN TEMP:  34; 6HR MAX TEMP:  36; 6HR PCP: TRACE;

SPOKANE FELTS  CLOUDY    40  32  73 S6        30.20F
6HR MIN TEMP:  37; 6HR MAX TEMP:  41;

FAIRCHILD AFB  NOT AVBL
COEURDALENE,ID LGT RAIN  37  33  85 S10       30.20F
6HR MIN TEMP:  34; 6HR MAX TEMP:  38;

DEER PARK      MIX PCPN  35  32  88 S8        30.19F
6HR MIN TEMP:  35; 6HR MAX TEMP:  36; 6HR PCP: TRACE;

$$

WAZ029>033-071900-
SOUTHEAST WASHINGTON

CITY           SKY/WX    TMP DP  RH WIND       PRES   REMARKS
PULLMAN        PTSUNNY   37  29  72 SE8       30.23F
6HR MIN TEMP:  33; 6HR MAX TEMP:  37;

LEWISTON, ID   PTSUNNY   40  34  79 N3        30.25F
6HR MIN TEMP:  32; 6HR MAX TEMP:  40;

WALLA WALLA    CLOUDY    44  32  62 S6        30.23F
6HR MIN TEMP:  38; 6HR MAX TEMP:  44;

PENDLETON, OR  CLOUDY    38  31  76 S6        30.25S
6HR MIN TEMP:  33; 6HR MAX TEMP:  38;

$$


 

View Past Reports for Seattle, WA.

Products Courtesy of NOAA-NWS
NWS Information Parsing Script by Ken True at Saratoga Weather - Script by SE Lincoln Weather.